WB4FAY-4 Weather Reports


time (UTC)temp
C
wind
direction
speed
KPH
gust
KPH
rain 1hr
cm
rain 24hr
cm
rain mn
cm
humidity
%
barometer
mb
20220525141618 21 32 0.0 3.2 0.00 1.45 0.10 95 1017.4
20220525141120 21 0 1.6 0.0 0.00 1.45 0.10 95 1017.5
20220525140618 21 4 0.0 1.6 0.00 1.45 0.10 95 1017.6
20220525140118 21 0 0.0 0.0 0.00 1.45 0.08 95 1017.7
20220525135618 21 342 0.0 3.2 0.00 1.45 0.08 95 1017.6
20220525135117 21 287 0.0 1.6 0.00 1.45 0.05 95 1017.7
20220525134617 20 0 0.0 0.0 0.00 1.45 0.05 95 1017.8
20220525134117 21 44 0.0 3.2 0.00 1.45 0.05 95 1017.8
20220525133617 20 0 0.0 0.0 0.00 1.45 0.05 95 1017.8
20220525133117 21 0 0.0 0.0 0.00 1.45 0.03 95 1018.0
20220525132622 20 0 0.0 0.0 0.00 1.45 0.03 95 1018.0
20220525132117 21 90 0.0 1.6 0.00 1.45 0.03 95 1018.0
20220525131617 21 354 0.0 4.8 0.00 1.45 0.03 95 1017.9
20220525131119 21 11 0.0 4.8 0.00 1.45 0.03 95 1017.9
20220525130617 21 0 0.0 0.0 0.00 1.45 0.03 95 1017.9
20220525130118 21 0 0.0 0.0 0.00 1.45 0.03 95 1017.9
20220525125617 20 0 0.0 0.0 0.00 1.45 0.03 95 1017.9
20220525125117 20 0 0.0 0.0 0.00 1.45 0.03 95 1017.9
20220525124617 20 0 0.0 0.0 0.00 1.45 0.03 95 1017.9
20220525124118 20 0 0.0 0.0 0.00 1.45 0.03 95 1017.8
20220525123618 21 0 0.0 0.0 0.00 1.45 0.03 95 1017.7
20220525123118 21 0 0.0 0.0 0.00 1.45 0.03 95 1017.3
20220525122617 21 0 0.0 0.0 0.00 1.45 0.03 95 1017.4
20220525122117 21 0 0.0 0.0 0.00 1.45 0.03 95 1016.9
20220525121617 21 18 0.0 3.2 0.00 1.45 0.03 95 1017.2
20220525121117 20 356 3.2 1.6 0.00 1.45 0.03 95 1017.1
20220525120617 20 0 0.0 0.0 0.00 1.45 0.03 95 1017.1
20220525120118 20 0 0.0 0.0 0.00 1.45 0.03 95 1017.1
20220525115617 21 0 0.0 0.0 0.00 1.45 0.03 95 1017.2
20220525115117 20 48 0.0 4.8 0.00 1.45 0.03 95 1016.9
20220525114617 20 337 0.0 4.8 0.00 1.45 0.03 95 1016.9
20220525114117 20 13 0.0 1.6 0.00 1.45 0.03 95 1016.9
20220525113617 20 0 0.0 0.0 0.00 1.45 0.03 95 1016.9
20220525113117 20 83 0.0 3.2 0.00 1.45 0.03 95 1016.8
20220525112617 20 75 0.0 3.2 0.00 1.45 0.03 95 1016.8
20220525112117 20 41 0.0 4.8 0.00 1.45 0.03 95 1016.7
20220525111619 20 61 0.0 9.7 0.00 1.45 0.03 95 1016.7
20220525111117 20 344 0.0 6.4 0.00 1.45 0.03 95 1016.7
20220525110617 20 58 1.6 8.0 0.00 1.45 0.03 95 1016.6
20220525110117 20 0 0.0 0.0 0.00 1.45 0.03 95 1016.6
20220525105617 20 0 0.0 0.0 0.00 1.45 0.03 95 1016.5
20220525105117 20 0 0.0 0.0 0.00 1.45 0.03 95 1016.5
20220525104617 20 0 0.0 0.0 0.00 1.45 0.03 95 1016.5
20220525104117 20 0 0.0 0.0 0.00 1.45 0.03 95 1016.4
20220525103617 20 0 0.0 0.0 0.00 1.45 0.03 95 1016.3
20220525103117 20 0 0.0 0.0 0.00 1.45 0.03 95 1016.3
20220525102617 20 59 0.0 6.4 0.00 1.45 0.03 95 1016.3
20220525102117 20 349 1.6 3.2 0.00 1.45 0.03 95 1016.2
20220525101617 20 350 0.0 6.4 0.00 1.45 0.03 95 1016.3
20220525101117 20 38 3.2 4.8 0.00 1.45 0.03 95 1016.4
20220525100617 20 352 3.2 1.6 0.00 1.45 0.03 95 1016.4
20220525100117 20 0 0.0 0.0 0.00 1.45 0.03 95 1016.4
20220525095617 20 0 0.0 0.0 0.00 1.45 0.03 95 1016.3
20220525095117 20 0 0.0 0.0 0.00 1.45 0.03 95 1016.4
20220525094617 20 354 0.0 1.6 0.00 1.45 0.03 95 1016.4
20220525094117 20 0 0.0 0.0 0.00 1.45 0.03 95 1016.4
20220525093617 20 344 0.0 3.2 0.00 1.45 0.03 95 1016.4
20220525093117 20 13 3.2 1.6 0.00 1.45 0.03 95 1016.4
20220525092618 20 55 0.0 3.2 0.00 1.45 0.03 95 1016.5
20220525092117 20 0 0.0 0.0 0.00 1.45 0.03 95 1016.3
20220525091617 20 0 0.0 0.0 0.00 1.45 0.03 95 1016.3
20220525091117 20 0 0.0 0.0 0.00 1.45 0.03 95 1016.3
20220525090617 20 0 0.0 0.0 0.00 1.45 0.03 95 1016.3
20220525090117 20 0 0.0 0.0 0.00 1.45 0.03 95 1016.3
20220525085617 20 0 0.0 0.0 0.00 1.45 0.03 95 1016.3
20220525085117 20 0 0.0 0.0 0.00 1.45 0.03 95 1016.4
20220525084623 20 0 0.0 0.0 0.00 1.45 0.03 95 1016.5
20220525084117 20 0 0.0 0.0 0.00 1.45 0.03 95 1016.6
20220525083617 20 0 0.0 0.0 0.00 1.45 0.03 95 1016.7
20220525083117 20 332 0.0 0.0 0.00 1.45 0.03 95 1016.7
20220525082619 20 0 0.0 0.0 0.00 1.45 0.00 95 1016.7
20220525082117 20 0 0.0 0.0 0.00 1.45 0.00 95 1016.7
20220525081617 20 0 0.0 0.0 0.00 1.45 0.00 95 1016.7
20220525081117 20 0 0.0 0.0 0.00 1.45 0.00 95 1016.6
20220525080617 20 0 0.0 0.0 0.00 1.45 0.00 95 1016.6
20220525080117 20 0 0.0 0.0 0.00 1.45 0.00 95 1016.6
20220525075617 20 0 0.0 0.0 0.00 1.45 0.00 95 1016.5
20220525075117 20 0 0.0 0.0 0.00 1.45 0.00 95 1016.4
20220525074617 20 0 0.0 0.0 0.00 1.45 0.00 95 1016.3
20220525074117 20 0 0.0 0.0 0.00 1.45 0.00 95 1016.3
20220525073617 20 0 0.0 0.0 0.00 1.45 0.00 95 1016.3
20220525073117 20 0 0.0 0.0 0.00 1.45 0.00 95 1016.3
20220525072617 20 0 0.0 0.0 0.00 1.45 0.00 95 1016.3
20220525072117 20 0 0.0 0.0 0.00 1.45 0.00 95 1016.3
20220525071618 20 0 0.0 0.0 0.00 1.45 0.00 95 1016.2
20220525071117 20 0 0.0 0.0 0.00 1.45 0.00 95 1016.3
20220525070617 20 0 0.0 0.0 0.00 1.45 0.00 95 1016.3
20220525070117 20 0 0.0 0.0 0.00 1.45 0.00 95 1016.4
20220525065617 20 0 0.0 0.0 0.00 1.45 0.00 95 1016.5
20220525065117 20 0 0.0 0.0 0.00 1.45 0.00 95 1016.5
20220525064617 20 347 0.0 3.2 0.00 1.45 0.00 95 1016.5
20220525064118 20 0 0.0 0.0 0.00 1.45 0.00 95 1016.7
20220525063617 20 0 0.0 0.0 0.00 1.45 0.00 95 1016.7
20220525063117 20 0 0.0 0.0 0.00 1.45 0.00 95 1016.7
20220525062618 20 0 0.0 0.0 0.00 1.45 0.00 95 1016.7
20220525062117 20 0 0.0 0.0 0.00 1.45 0.00 95 1016.7
20220525061617 20 0 0.0 0.0 0.00 1.45 0.00 95 1016.7
20220525061117 20 0 0.0 0.0 0.00 1.45 0.00 95 1016.7
20220525060618 20 0 0.0 0.0 0.00 1.45 0.00 95 1016.7
20220525060117 20 0 0.0 0.0 0.00 1.45 0.00 95 1016.7
20220525055618 20 0 0.0 0.0 0.00 1.45 0.00 95 1016.7
20220525055117 20 0 0.0 0.0 0.00 1.45 0.00 95 1016.8
20220525054618 20 0 0.0 0.0 0.00 1.45 0.00 95 1016.7
20220525054118 20 0 0.0 0.0 0.00 1.45 0.00 95 1016.8
20220525053618 20 0 0.0 0.0 0.00 1.45 0.00 95 1016.8
20220525053117 20 0 0.0 0.0 0.00 1.45 0.00 95 1016.7
20220525052617 20 0 0.0 0.0 0.00 1.45 0.00 95 1016.7
20220525052117 20 25 0.0 1.6 0.00 1.45 0.00 95 1016.7
20220525051623 20 21 0.0 1.6 0.00 1.45 0.00 95 1016.8
20220525051117 20 312 0.0 6.4 0.00 1.45 0.00 95 1016.8
20220525050618 20 0 0.0 0.0 0.00 1.45 0.00 95 1016.9
20220525050117 20 315 0.0 1.6 0.00 1.45 0.00 95 1016.9
20220525045617 20 0 0.0 0.0 0.00 2.97 1.45 95 1016.9
20220525045118 20 0 0.0 0.0 0.00 2.97 1.45 95 1016.8
20220525044617 20 0 0.0 0.0 0.00 2.97 1.45 95 1016.9
20220525044117 20 0 0.0 0.0 0.00 2.97 1.45 95 1016.8
20220525043618 20 0 0.0 0.0 0.00 2.97 1.45 95 1016.8
20220525043117 20 0 0.0 0.0 0.00 2.97 1.45 95 1016.7
20220525042618 20 49 0.0 1.6 0.00 2.97 1.45 95 1016.7
20220525042117 20 0 0.0 0.0 0.00 2.97 1.45 95 1016.6
20220525041617 20 141 0.0 3.2 0.00 2.97 1.45 95 1016.6
20220525041118 20 85 0.0 4.8 0.00 2.97 1.45 95 1016.7
20220525040618 20 0 0.0 0.0 0.00 2.97 1.45 95 1016.7
20220525040117 20 0 0.0 0.0 0.00 2.97 1.45 95 1016.8
20220525035617 20 83 0.0 3.2 0.00 2.97 1.45 95 1017.1
20220525035117 20 90 1.6 3.2 0.00 2.97 1.45 95 1017.1
20220525034618 20 79 1.6 4.8 0.00 2.97 1.45 95 1016.9
20220525034117 20 76 0.0 6.4 0.00 2.97 1.45 95 1017.2
20220525033618 20 72 4.8 8.0 0.00 2.97 1.45 95 1017.3
20220525033117 20 73 3.2 4.8 0.00 2.97 1.45 95 1017.4
20220525032617 20 6 0.0 3.2 0.00 2.97 1.45 95 1017.4
20220525032117 20 354 1.6 12.9 0.00 2.97 1.45 95 1017.4
20220525031617 20 10 3.2 9.7 0.00 2.97 1.45 95 1017.3
20220525031117 20 178 3.2 4.8 0.00 2.97 1.45 95 1017.6
20220525030617 20 78 3.2 6.4 0.00 2.97 1.45 95 1016.8
20220525030116 20 88 4.8 8.0 0.00 2.97 1.45 95 1016.9
20220525025617 20 86 0.0 4.8 0.00 2.97 1.45 95 1016.8
20220525025117 20 78 0.0 1.6 0.00 2.97 1.45 94 1016.8
20220525024617 20 85 0.0 3.2 0.00 2.97 1.45 94 1016.8
20220525024117 21 83 0.0 4.8 0.00 2.97 1.45 94 1016.8
20220525023618 20 0 0.0 0.0 0.00 2.97 1.45 94 1016.7
20220525023117 20 0 0.0 0.0 0.00 2.97 1.45 94 1016.7
20220525022619 21 0 0.0 0.0 0.00 2.97 1.45 94 1016.6
20220525022117 21 0 0.0 0.0 0.00 2.97 1.45 94 1016.6
20220525021617 21 0 0.0 0.0 0.00 2.97 1.45 94 1016.6
20220525021117 21 0 0.0 0.0 0.00 2.97 1.45 94 1016.6
20220525020617 20 0 0.0 0.0 0.00 2.97 1.45 94 1016.6
20220525020117 20 0 0.0 0.0 0.00 2.97 1.45 94 1016.6
20220525015617 21 0 0.0 0.0 0.00 2.97 1.45 94 1016.4
20220525015116 21 0 0.0 0.0 0.00 2.97 1.45 94 1016.4
20220525014622 21 0 0.0 0.0 0.00 2.97 1.45 94 1016.3
20220525014118 21 0 0.0 0.0 0.00 2.97 1.45 94 1016.3
20220525013617 21 0 0.0 0.0 0.00 2.97 1.45 94 1016.3
20220525013119 21 0 0.0 0.0 0.00 2.97 1.45 94 1016.4
20220525012617 21 0 0.0 0.0 0.00 2.97 1.45 94 1016.3
20220525012117 21 0 0.0 0.0 0.00 2.97 1.45 94 1016.3
20220525011617 21 20 0.0 3.2 0.00 2.97 1.45 94 1015.2
20220525011117 21 76 0.0 1.6 0.00 2.97 1.45 94 1015.3
20220525010617 21 75 0.0 1.6 0.00 2.97 1.45 94 1016.1
20220525010117 21 75 0.0 1.6 0.00 2.97 1.45 94 1016.1
20220525005617 21 76 0.0 1.6 0.00 2.97 1.45 94 1015.8
20220525005117 21 79 0.0 3.2 0.00 2.97 1.45 94 1015.8
20220525004617 21 88 0.0 4.8 0.00 2.97 1.45 94 1016.0
20220525004118 21 0 4.8 0.0 0.00 2.97 1.45 94 1016.3
20220525003617 21 0 0.0 0.0 0.00 2.97 1.45 94 1016.2
20220525003117 21 0 0.0 0.0 0.00 2.97 1.45 94 1016.2
20220525002617 21 103 0.0 3.2 0.00 2.97 1.45 94 1016.2
20220525002117 21 76 3.2 4.8 0.00 2.97 1.45 94 1016.2
20220525001618 21 75 0.0 3.2 0.00 2.97 1.45 94 1016.2
20220525001117 21 90 0.0 4.8 0.00 2.97 1.45 94 1016.2
20220525000617 21 76 0.0 3.2 0.00 2.97 1.45 94 1016.0
20220525000118 21 88 0.0 3.2 0.00 2.97 1.45 94 1015.9
20220524235618 21 103 1.6 1.6 0.00 2.97 1.45 93 1015.8
20220524235118 21 42 1.6 3.2 0.00 2.97 1.45 93 1015.7
20220524234617 21 68 0.0 4.8 0.00 2.97 1.45 93 1015.7
20220524234118 21 89 3.2 3.2 0.00 2.97 1.45 93 1015.7
20220524233617 21 0 0.0 0.0 0.00 2.97 1.45 93 1015.7
20220524233117 21 0 0.0 0.0 0.00 2.97 1.45 93 1015.7
20220524232617 21 0 0.0 0.0 0.00 2.97 1.45 93 1015.6
20220524232117 21 0 0.0 0.0 0.00 2.97 1.45 93 1015.6
20220524231618 21 14 0.0 1.6 0.00 2.97 1.45 93 1015.6
20220524231117 21 25 0.0 1.6 0.00 2.97 1.45 93 1015.7
20220524230617 21 0 0.0 0.0 0.00 2.97 1.45 93 1015.8
20220524230117 21 353 0.0 3.2 0.00 2.97 1.45 93 1015.9
20220524225616 21 35 0.0 1.6 0.00 2.97 1.45 92 1015.9
20220524225117 21 25 0.0 3.2 0.00 2.97 1.42 93 1015.9
20220524224617 21 306 1.6 4.8 0.00 2.97 1.42 92 1016.0
20220524224117 21 181 0.0 3.2 0.00 2.97 1.42 92 1015.9
20220524223617 21 285 1.6 4.8 0.00 2.97 1.40 92 1015.7
20220524223117 21 162 0.0 6.4 0.00 2.97 1.40 92 1015.7
20220524222617 21 151 1.6 3.2 0.00 2.97 1.40 92 1015.7
20220524222116 21 251 0.0 8.0 0.00 2.97 1.37 92 1015.4
20220524221622 21 217 0.0 1.6 0.00 2.97 1.37 91 1015.3
20220524221117 21 311 0.0 1.6 0.00 2.97 1.37 91 1015.6
20220524220618 21 271 0.0 1.6 0.00 2.97 1.35 91 1015.8
20220524220117 21 206 0.0 3.2 0.00 2.97 1.35 91 1016.0
20220524215617 22 248 0.0 4.8 0.00 2.97 1.32 91 1016.1
20220524215117 21 0 0.0 0.0 0.00 2.97 1.32 90 1015.8
20220524214617 22 0 0.0 0.0 0.00 2.97 1.30 89 1015.5
20220524214117 22 233 0.0 0.0 0.00 2.97 1.30 89 1015.5
20220524213618 22 247 0.0 1.6 0.00 2.97 1.30 88 1015.4
20220524213117 22 51 0.0 1.6 0.00 2.97 1.30 86 1015.3
20220524212617 22 25 0.0 3.2 0.00 2.97 1.30 85 1015.2
20220524212117 22 340 1.6 6.4 0.00 2.97 1.30 83 1015.5
20220524211617 23 357 0.0 14.5 0.00 2.97 1.27 78 1015.7
20220524211117 25 328 8.0 22.5 0.00 2.97 1.07 70 1016.5
20220524210117 28 17 1.6 4.8 0.00 2.97 0.13 62 1015.1
20220524205619 28 263 3.2 4.8 0.00 2.97 0.13 63 1015.0
20220524205117 28 69 4.8 6.4 0.00 2.97 0.13 65 1014.9
20220524204617 28 64 0.0 8.0 0.00 2.97 0.13 64 1014.9
20220524204117 28 14 6.4 8.0 0.00 2.97 0.13 65 1015.0
20220524203617 27 0 4.8 4.8 0.00 2.97 0.13 68 1014.9
20220524203117 27 4 1.6 3.2 0.00 2.97 0.13 68 1015.1
20220524202618 27 32 3.2 9.7 0.00 2.97 0.13 68 1015.1
20220524202117 27 107 6.4 6.4 0.00 2.97 0.13 69 1015.1
20220524201617 27 55 1.6 11.3 0.00 2.97 0.13 68 1015.1
20220524201117 27 289 3.2 6.4 0.00 2.97 0.13 67 1015.2
20220524200617 27 107 0.0 8.0 0.00 2.97 0.13 69 1015.4
20220524200117 27 64 1.6 9.7 0.00 2.97 0.13 70 1015.4
20220524195622 27 59 3.2 9.7 0.00 2.97 0.13 71 1015.4
20220524195117 26 301 1.6 9.7 0.00 2.97 0.13 73 1015.5
20220524194617 26 54 3.2 12.9 0.00 2.97 0.13 74 1015.7
20220524194117 26 97 1.6 8.0 0.00 2.97 0.13 74 1015.8
20220524193617 26 332 1.6 6.4 0.00 2.97 0.13 74 1015.9
20220524193117 26 88 1.6 8.0 0.00 2.97 0.13 74 1016.1
20220524192618 26 85 4.8 12.9 0.00 2.97 0.13 75 1016.2
20220524192117 26 160 3.2 4.8 0.00 2.97 0.13 78 1016.3
20220524191617 26 45 0.0 8.0 0.00 2.97 0.13 79 1016.4
20220524191117 25 52 1.6 6.4 0.00 2.97 0.13 80 1016.5
20220524190617 25 76 1.6 9.7 0.00 2.97 0.13 81 1016.6
20220524190117 25 92 3.2 4.8 0.00 2.97 0.13 82 1016.7
20220524185617 24 72 1.6 8.0 0.00 2.97 0.13 83 1016.8
20220524185117 24 62 6.4 6.4 0.00 2.97 0.13 84 1016.9
20220524184622 23 96 0.0 6.4 0.00 2.97 0.13 85 1016.9
20220524184117 23 0 0.0 0.0 0.00 2.97 0.13 85 1017.2
20220524183617 23 0 0.0 0.0 0.00 2.97 0.13 85 1017.3
20220524183122 23 0 0.0 0.0 0.00 2.97 0.13 84 1017.4
20220524182617 23 0 0.0 0.0 0.00 2.97 0.13 85 1017.5
20220524182117 24 59 0.0 6.4 0.00 2.97 0.13 85 1017.5
20220524181617 23 68 1.6 3.2 0.00 2.97 0.13 85 1017.4
20220524181117 24 128 3.2 6.4 0.00 2.97 0.13 86 1017.5
20220524180617 23 68 4.8 4.8 0.00 2.97 0.13 86 1017.6
20220524180118 23 75 1.6 4.8 0.00 2.97 0.13 86 1017.6
20220524175617 23 88 0.0 4.8 0.00 2.97 0.13 86 1017.7
20220524175117 23 90 4.8 6.4 0.00 2.97 0.13 86 1017.7
20220524174618 23 89 3.2 6.4 0.00 2.97 0.13 87 1017.8
20220524174118 23 79 1.6 4.8 0.00 2.97 0.13 87 1017.9
20220524173618 23 354 1.6 3.2 0.00 2.97 0.13 88 1018.2
20220524173117 23 258 0.0 3.2 0.00 2.97 0.13 87 1018.2
20220524172617 23 0 0.0 0.0 0.00 2.97 0.13 88 1018.2
20220524172117 23 0 0.0 0.0 0.00 2.97 0.13 88 1018.1
20220524171617 23 0 0.0 0.0 0.00 2.97 0.13 87 1018.1
20220524171117 23 0 0.0 0.0 0.00 2.97 0.13 86 1018.0
20220524170617 23 0 0.0 0.0 0.00 2.97 0.13 85 1018.0
20220524170117 23 0 0.0 0.0 0.00 2.97 0.13 85 1018.1
20220524165617 23 0 0.0 0.0 0.00 2.97 0.10 84 1018.3
20220524165117 23 0 0.0 0.0 0.00 2.97 0.08 83 1018.3
20220524164617 23 0 0.0 0.0 0.00 2.97 0.05 83 1018.3
20220524164117 23 0 0.0 0.0 0.00 2.97 0.03 82 1018.4
20220524163618 23 0 0.0 0.0 0.00 2.97 0.00 81 1018.5
20220524163118 23 0 0.0 0.0 0.00 2.97 0.00 81 1018.5
20220524162618 23 0 0.0 0.0 0.00 2.97 0.00 80 1018.5
20220524162118 23 215 0.0 1.6 0.00 2.97 0.00 80 1018.6
20220524161618 23 188 0.0 3.2 0.00 2.97 0.00 79 1018.5
20220524161118 23 294 1.6 3.2 0.00 2.97 0.00 79 1018.3
20220524160618 23 335 1.6 3.2 0.00 2.97 0.00 81 1018.2
20220524160118 23 0 1.6 0.0 0.00 2.97 0.00 81 1018.2
20220524155618 23 0 0.0 0.0 0.00 2.97 0.00 81 1018.2
20220524155118 23 0 0.0 0.0 0.00 2.97 0.00 80 1018.1
20220524154618 23 0 0.0 0.0 0.00 2.97 0.00 81 1018.0
20220524154117 23 0 0.0 0.0 0.00 2.97 0.00 81 1018.0
20220524153618 23 0 0.0 0.0 0.00 2.97 0.00 81 1018.0
20220524153118 23 0 0.0 0.0 0.00 2.97 0.00 82 1018.0
20220524152617 23 92 0.0 6.4 0.00 2.97 0.00 82 1018.0
20220524152117 23 75 6.4 6.4 0.00 2.97 0.00 84 1017.9
20220524151622 23 82 1.6 4.8 0.00 2.97 0.00 85 1018.0
20220524151117 22 69 1.6 8.0 0.00 2.97 0.00 86 1018.0
20220524150617 22 0 0.0 0.0 0.00 2.97 0.00 86 1018.1
20220524150117 22 0 0.0 0.0 0.00 2.97 0.00 86 1018.0
20220524145617 22 35 0.0 1.6 0.00 2.97 0.00 86 1018.1
20220524145117 22 68 0.0 3.2 0.00 2.97 0.00 86 1018.1
20220524144617 22 0 0.0 0.0 0.00 2.97 0.00 85 1018.1
20220524144117 22 0 0.0 0.0 0.00 2.97 0.00 85 1018.2
20220524143617 22 76 0.0 3.2 0.00 2.97 0.00 86 1018.3
20220524143117 22 92 0.0 4.8 0.00 2.97 0.00 86 1018.3
20220524142617 22 88 1.6 4.8 0.00 2.97 0.00 86 1018.2
20220524142117 22 71 1.6 3.2 0.00 2.97 0.00 87 1018.3